sat.trackr.live / text

‹ back to catalog

STARLINK-5571

NORAD 55380 · 2023-013BB

PAYLOAD ACTIVE UNKNOWN

§ Identity

Operator
Country
US
Launch date
2023-01-26
Launch site
AFETR
Launch vehicle
Mass (kg)
RCS (m²)

Purposes: comms

External: N2YO · Heavens-Above · Gunter

§ Orbital elements

Epoch: 2026-05-24T17:09:40.649184Z

Period
95.61 min
Inclination
42.9996°
Eccentricity
0.0001846
Mean motion
15.06044760 rev/d
Perigee alt
547.0 km
Apogee alt
549.6 km
Semi-major
6,926.4 km
B*
2.3704e-3
RAAN
232.6770°
Arg perigee
307.8265°
Mean anomaly
52.2411°
Rev number
18,331

§ Raw data

STARLINK-55711 55380U 23013BB  26144.71505381  .00035139  00000+0  23704-2 0  99952 55380  42.9996 232.6770 0001846 307.8265  52.2411 15.06044760183313

JSON: /api/v1/satellites/55380 · /tle

For live sub-satellite position, see the globe view (requires WebGL).

§ Visibility from observer

Set your observer location to see the next 7 days of passes ≥ 10°. The values pass through the URL so the page stays shareable.

No JS? Fill the form by hand. The geolocation button needs JavaScript.